SCP
0 0 0 0 0 0 0 0 0 0 -0 -0 -0 -0 0 0 0 0 0 0 0 0 0 0 0 0 0
0 0 0 0 0 0 0 0 0 0 0 0 0 0 0 0 0 0 0 0 0 0 0 0 0 0 0
0 0 0 0 0 0 0 0 0 0 0 0 0 0 0 0 0 0 0 0 0 0 0 0 0 0 0
0 0 0 0 0 0 0 0 0 0 0 0 0 0 0 0 0 0 0 0 0 0 0 0 0 0 0
0 0 0 0 0 0 0 0 0 0 0 0 0 0 0 0 0 0 0 0 0 0 0 0 0 0 0
0 0 0 0 0 0 0 0 0 0 0 0 0 0 0 0 0 0 0 0 0 0 0 0 0 0 0
0 0 0 0 0 0 0 0 0 0 0 0 0 0 0 0 0 0 0 0 0 0 0 0 0 0 0
0 0 0 0 0 0 0 0 0 0 0 0 0 0 0 0 0 0 0 0 0 0 0 0 0 0 0
0 0 0 0 0 0 0 0 0 0 0 0 0 0 0 0 0 0 0 0 0 0 0 0 0 0 0
0 0 0 0 0 0 0 0 0 0 0 0 0 0 0 0 0 0 0 0 0 0 0 0 0 0 0
0 0 0 0 0 0 0 0 0 0 0 0 0 0 0 0 0 0 0 0 0 0 0 0 0 0 0
0 0 0 0 0 0 0 0 0 0 0 0 0 0 0 0 0 0 0 0 0 0 0 0 0 0 0
0 0 0 0 0 0 0 0 0 0 0 0 0 0 0 0 0 0 0 0 0 0 0 0 0 0 0
0 0 0 0 0 0 0 0 0 0 0 0 0 0 0 0 0 0 0 0 0 0 0 0 0 0 0
0 0 0 0 0 0 0 0 0 0 0 0 0 0 0 0 0 0 0 0 0 0 0 0 0 0 0
0 0 0 0 0 0 0 0 0 0 0 0 0 0 0 0 0 0 0 0 0 0 0 0 0 0 0
Wind_Speed_500mb
23 22 21 19 16 13 13 22 27 25 19 15 12 10 11 11 10 10 10 11 11 10 7 5 11 6 5
27 26 25 24 21 18 16 19 23 30 24 22 16 15 16 18 16 13 11 11 12 12 10 7 6 8 8
31 30 31 30 28 24 20 19 20 29 27 24 23 24 24 20 17 16 16 14 15 15 14 12 11 10 12
34 35 36 36 35 32 27 23 25 26 32 28 28 26 26 25 24 22 21 20 19 18 18 17 15 16 15
37 37 39 41 43 41 37 31 30 29 34 35 33 30 31 32 32 29 27 25 23 23 23 23 20 19 18
41 43 42 45 46 48 46 41 39 36 37 40 39 38 36 35 33 33 31 29 29 28 28 28 27 24 23
50 49 48 50 50 48 50 50 49 46 43 42 43 44 43 42 39 37 36 35 34 34 34 33 33 31 28
59 60 57 54 53 53 53 53 54 54 51 48 48 50 50 49 45 44 42 40 40 40 40 39 38 37 35
65 66 67 64 60 60 59 56 56 57 55 54 53 55 55 52 51 50 50 49 49 48 47 45 43 42 42
68 68 72 72 71 68 66 63 61 60 60 58 60 58 56 56 56 56 56 57 56 56 53 51 50 48 47
69 73 75 77 79 78 73 71 69 66 65 65 64 64 58 59 63 64 62 62 65 61 60 58 56 56 54
68 75 81 85 88 84 82 80 77 73 71 69 70 69 67 65 68 71 70 67 68 67 64 66 63 63 62
82 77 81 86 87 87 86 86 85 81 76 78 76 75 76 74 74 72 71 73 73 71 66 74 75 72 75
79 81 79 77 85 86 87 89 91 87 82 84 83 83 81 82 81 78 77 80 78 77 73 75 68 74 84
61 74 81 78 80 83 85 87 86 88 83 88 90 88 88 84 88 85 84 86 87 82 78 68 29 38 52
50 65 77 85 89 85 81 85 85 89 89 87 91 90 93 95 88 92 90 91 87 91 88 86 90 84 41
Wind_Direction_500mb
246 252 253 251 253 265 237 225 200 197 197 206 189 209 197 186 186 179 176 181 195 194 190 160 156 183 233
251 253 253 255 257 260 256 239 210 212 205 210 212 206 209 204 196 196 204 209 216 218 218 235 222 225 237
254 257 254 254 255 260 253 248 242 229 220 222 221 210 214 213 207 208 216 223 232 231 231 235 247 255 273
260 258 258 256 256 255 256 254 248 237 234 228 229 218 221 217 212 214 221 229 237 244 245 247 259 268 273
264 261 262 261 260 259 255 253 255 244 238 241 240 230 228 227 219 221 225 233 239 245 253 257 260 262 264
266 266 264 264 263 262 264 257 254 253 248 243 243 240 238 239 231 229 230 234 240 245 249 257 263 262 261
266 266 266 260 262 267 266 264 259 256 255 253 249 245 243 241 239 234 235 238 243 248 251 254 258 261 263
268 267 267 268 263 262 265 267 264 260 259 257 254 250 246 244 243 242 242 243 246 248 251 255 257 259 260
270 268 267 266 265 263 261 263 264 263 259 259 258 255 252 249 245 246 243 243 244 246 249 253 256 258 259
271 271 268 267 266 266 264 262 262 264 262 260 260 259 255 251 248 247 247 247 247 247 251 253 256 258 258
273 270 271 270 267 266 266 265 263 261 262 261 262 262 258 253 252 251 250 250 250 250 253 255 256 257 258
271 269 266 267 267 266 267 266 266 262 260 260 262 262 259 255 254 251 252 253 253 253 255 257 256 256 256
270 268 266 266 267 268 269 269 265 264 262 260 260 261 260 255 257 257 256 258 256 255 257 258 258 257 256
263 266 266 270 268 269 267 269 270 267 264 264 259 260 261 260 258 258 256 257 257 255 252 259 271 266 259
266 264 263 263 262 264 267 269 273 274 270 266 262 259 262 263 260 259 259 257 259 258 252 246 254 254 273
280 268 262 262 263 269 275 276 275 275 274 269 270 264 260 263 263 260 260 260 258 258 257 250 248 251 273
Wind_Speed_850mb
23 22 21 19 16 13 13 22 27 25 19 15 12 10 11 11 10 10 10 11 11 10 7 5 11 6 5
27 26 25 24 21 18 16 19 23 30 24 22 16 15 16 18 16 13 11 11 12 12 10 7 6 8 8
31 30 31 30 28 24 20 19 20 29 27 24 23 24 24 20 17 16 16 14 15 15 14 12 11 10 12
34 35 36 36 35 32 27 23 25 26 32 28 28 26 26 25 24 22 21 20 19 18 18 17 15 16 15
37 37 39 41 43 41 37 31 30 29 34 35 33 30 31 32 32 29 27 25 23 23 23 23 20 19 18
41 43 42 45 46 48 46 41 39 36 37 40 39 38 36 35 33 33 31 29 29 28 28 28 27 24 23
50 49 48 50 50 48 50 50 49 46 43 42 43 44 43 42 39 37 36 35 34 34 34 33 33 31 28
59 60 57 54 53 53 53 53 54 54 51 48 48 50 50 49 45 44 42 40 40 40 40 39 38 37 35
65 66 67 64 60 60 59 56 56 57 55 54 53 55 55 52 51 50 50 49 49 48 47 45 43 42 42
68 68 72 72 71 68 66 63 61 60 60 58 60 58 56 56 56 56 56 57 56 56 53 51 50 48 47
69 73 75 77 79 78 73 71 69 66 65 65 64 64 58 59 63 64 62 62 65 61 60 58 56 56 54
68 75 81 85 88 84 82 80 77 73 71 69 70 69 67 65 68 71 70 67 68 67 64 66 63 63 62
82 77 81 86 87 87 86 86 85 81 76 78 76 75 76 74 74 72 71 73 73 71 66 74 75 72 75
79 81 79 77 85 86 87 89 91 87 82 84 83 83 81 82 81 78 77 80 78 77 73 75 68 74 84
61 74 81 78 80 83 85 87 86 88 83 88 90 88 88 84 88 85 84 86 87 82 78 68 29 38 52
50 65 77 85 89 85 81 85 85 89 89 87 91 90 93 95 88 92 90 91 87 91 88 86 90 84 41
Wind_Direction_850mb
246 252 253 251 253 265 237 225 200 197 197 206 189 209 197 186 186 179 176 181 195 194 190 160 156 183 233
251 253 253 255 257 260 256 239 210 212 205 210 212 206 209 204 196 196 204 209 216 218 218 235 222 225 237
254 257 254 254 255 260 253 248 242 229 220 222 221 210 214 213 207 208 216 223 232 231 231 235 247 255 273
260 258 258 256 256 255 256 254 248 237 234 228 229 218 221 217 212 214 221 229 237 244 245 247 259 268 273
264 261 262 261 260 259 255 253 255 244 238 241 240 230 228 227 219 221 225 233 239 245 253 257 260 262 264
266 266 264 264 263 262 264 257 254 253 248 243 243 240 238 239 231 229 230 234 240 245 249 257 263 262 261
266 266 266 260 262 267 266 264 259 256 255 253 249 245 243 241 239 234 235 238 243 248 251 254 258 261 263
268 267 267 268 263 262 265 267 264 260 259 257 254 250 246 244 243 242 242 243 246 248 251 255 257 259 260
270 268 267 266 265 263 261 263 264 263 259 259 258 255 252 249 245 246 243 243 244 246 249 253 256 258 259
271 271 268 267 266 266 264 262 262 264 262 260 260 259 255 251 248 247 247 247 247 247 251 253 256 258 258
273 270 271 270 267 266 266 265 263 261 262 261 262 262 258 253 252 251 250 250 250 250 253 255 256 257 258
271 269 266 267 267 266 267 266 266 262 260 260 262 262 259 255 254 251 252 253 253 253 255 257 256 256 256
270 268 266 266 267 268 269 269 265 264 262 260 260 261 260 255 257 257 256 258 256 255 257 258 258 257 256
263 266 266 270 268 269 267 269 270 267 264 264 259 260 261 260 258 258 256 257 257 255 252 259 271 266 259
266 264 263 263 262 264 267 269 273 274 270 266 262 259 262 263 260 259 259 257 259 258 252 246 254 254 273
280 268 262 262 263 269 275 276 275 275 274 269 270 264 260 263 263 260 260 260 258 258 257 250 248 251 273